Webcam Zuidwest  Webcam Zuidwest


Onweer radar more information blitzortung!


Regen radar more information rain snow radar


Weerstation Noordbergum

Weerstation Luyksgestel

Website Noardburgum


U vindt ons ook hier:

Het Weer Aktueel

UK Metoffice

European Weather Network

Weather Underground

AWEKAS

Citizen Weather Observer Program (CWOP)

HAMweather, WeatherForYou, PWS Weather



IFRIESLA82 History tables / reports. Script startWUhistory.php

Select another period ( hide this area )

Eenheden Periode Custom range Directly to
Metrisch Engels Beide
Dagelijkse Wekelijkse Maandelijkse Jaarlijkse
use both date-selectors for a custom range
previous Dag
With this date

WeatherUnderground graphs for this period ( click here ) Loading the graph can take up to a minute!



Warning: Division by zero in /home/tjeerqo264/domains/wsnoordbergum.nl/public_html/weather2/wuhistory/WU-History4.php on line 817
Dagelijkse Samenvatting Donderdag Dec 9 2021
Tijd Temp. ( °C ) Dew pt. ( °C ) Wind ( km/h ) van Windvlaag ( km/h ) Luchtdruk ( hPa ) Humid.( % ) Rainrate ( cm ) Zonneschijn ( W/m2 )
Hoog2,3 1,0 20,0 ZO ( 940/1368 ) 23,0 999,7 94 - 0
Gemiddeld1,4 0,3 13,2 ZO #69/104 16,4 998,7 93 - NAN #0/104
Laag0,6 -0,3 8,0   11,0 998,0 91 -  
Dagelijkse Tabular details for Donderdag Dec 9 2021
Tijd Temp. ( °C ) Dew pt. ( °C ) Wind ( km/h ) van Windvlaag ( km/h ) Luchtdruk ( hPa ) Humid.( % ) Rainrate ( cm ) Zonneschijn ( W/m2 )
00:04 2,3 1,0 14,0 ZO 19,0 998,0 91 - -
00:09 2,3 1,0 13,0 ZO 13,0 998,0 91 - -
00:14 2,2 0,9 14,0 ZZO 18,0 998,0 91 - -
00:19 2,3 1,0 14,0 ZO 16,0 998,0 91 - -
00:24 2,2 0,9 13,0 ZO 16,0 998,0 91 - -
00:29 2,2 0,9 13,0 ZO 16,0 998,0 91 - -
00:34 2,2 0,9 14,0 ZO 16,0 998,0 91 - -
00:39 2,1 0,9 13,0 ZO 16,0 998,0 92 - -
00:44 2,1 0,9 13,0 ZO 13,0 998,3 92 - -
00:49 2,1 0,9 13,0 ZO 18,0 998,3 92 - -
00:54 2,1 0,9 10,0 ZO 15,0 998,0 92 - -
00:59 2,1 0,9 16,0 ZO 16,0 998,3 92 - -
01:04 2,0 0,8 16,0 ZO 16,0 998,3 92 - -
01:09 2,0 0,8 13,0 ZO 15,0 998,3 92 - -
01:14 1,9 0,7 13,0 ZO 15,0 998,3 92 - -
01:19 2,0 0,8 13,0 ZO 18,0 998,3 92 - -
01:24 2,1 0,9 14,0 ZO 16,0 998,3 92 - -
01:29 2,1 0,9 14,0 ZO 18,0 998,3 92 - -
01:34 2,0 0,8 16,0 ZO 18,0 998,0 92 - -
01:39 1,9 0,7 13,0 ZO 15,0 998,0 92 - -
01:44 1,9 0,7 14,0 ZO 15,0 998,0 92 - -
01:49 1,9 0,7 14,0 ZO 16,0 998,3 92 - -
01:54 1,9 0,7 13,0 ZZO 16,0 998,3 92 - -
01:59 1,9 0,7 10,0 ZZO 16,0 998,3 92 - -
02:04 1,8 0,6 13,0 ZZO 16,0 998,3 92 - -
02:09 1,8 0,6 13,0 ZZO 16,0 998,3 92 - -
02:14 1,8 0,6 13,0 ZO 18,0 998,3 92 - -
02:19 1,8 0,6 20,0 ZZO 19,0 998,3 92 - -
02:24 1,9 0,7 13,0 ZO 19,0 998,3 92 - -
02:29 1,9 0,7 13,0 ZO 23,0 998,3 92 - -
02:34 1,9 0,7 16,0 ZO 16,0 998,7 92 - -
02:39 1,8 0,6 20,0 ZO 23,0 998,7 92 - -
02:44 1,7 0,5 13,0 ZO 18,0 998,7 92 - -
02:49 1,7 0,5 20,0 ZZO 19,0 998,7 92 - -
02:54 1,7 0,5 13,0 ZO 19,0 998,7 92 - -
02:59 1,7 0,5 13,0 ZZO 16,0 998,7 92 - -
03:04 1,6 0,4 13,0 ZO 23,0 998,7 92 - -
03:09 1,6 0,4 13,0 ZZO 18,0 998,7 92 - -
03:14 1,6 0,4 19,0 ZO 19,0 998,7 92 - -
03:19 1,5 0,5 16,0 ZO 16,0 998,7 93 - -
03:24 1,6 0,6 13,0 ZO 16,0 998,7 93 - -
03:29 1,5 0,5 14,0 ZO 18,0 998,7 93 - -
03:34 1,5 0,5 11,0 ZO 18,0 998,7 93 - -
03:39 1,4 0,4 14,0 ZO 18,0 998,7 93 - -
03:44 1,4 0,4 14,0 ZO 18,0 998,7 93 - -
03:49 1,4 0,4 14,0 ZO 18,0 998,7 93 - -
03:54 1,4 0,4 13,0 ZO 15,0 998,3 93 - -
03:59 1,4 0,4 16,0 ZO 19,0 998,3 93 - -
04:04 1,3 0,3 8,0 ZZO 19,0 998,7 93 - -
04:09 1,3 0,3 11,0 ZO 16,0 998,7 93 - -
04:14 1,3 0,3 11,0 ZO 15,0 998,7 93 - -
04:19 1,3 0,3 16,0 ZO 16,0 998,7 93 - -
04:24 1,3 0,3 13,0 ZZO 16,0 998,7 93 - -
04:29 1,3 0,3 14,0 ZZO 16,0 998,7 93 - -
04:34 1,3 0,3 14,0 ZZO 15,0 998,7 93 - -
04:39 1,3 0,3 10,0 ZZO 18,0 998,7 93 - -
04:44 1,3 0,3 14,0 ZO 18,0 998,7 93 - -
04:49 1,3 0,3 18,0 ZO 18,0 998,7 93 - -
04:54 1,3 0,3 13,0 ZZO 18,0 998,7 93 - -
04:59 1,2 0,2 14,0 ZO 15,0 998,7 93 - -
05:04 1,2 0,2 14,0 ZO 16,0 998,7 93 - -
05:09 1,2 0,2 16,0 ZO 16,0 998,7 93 - -
05:14 1,2 0,2 13,0 ZO 18,0 998,7 93 - -
05:19 1,2 0,2 10,0 ZZO 18,0 998,3 93 - -
05:24 1,1 0,1 10,0 ZO 13,0 998,7 93 - -
05:29 1,1 0,1 11,0 ZO 13,0 998,7 93 - -
05:34 1,1 0,1 13,0 ZO 15,0 998,7 93 - -
05:39 1,1 0,1 10,0 ZZO 15,0 998,7 93 - -
05:44 1,0 0,0 11,0 ZO 15,0 998,7 93 - -
05:49 1,1 0,1 8,0 ZO 13,0 998,7 93 - -
05:54 1,0 0,0 10,0 ZZO 11,0 998,7 93 - -
05:59 1,0 0,0 11,0 ZO 13,0 998,7 93 - -
06:04 1,0 0,0 8,0 ZZO 13,0 998,7 93 - -
06:09 0,9 -0,1 11,0 ZZO 15,0 999,0 93 - -
06:14 0,9 -0,1 8,0 ZZO 15,0 999,0 93 - -
06:19 0,9 -0,1 11,0 ZZO 15,0 999,0 94 - -
06:24 0,8 -0,1 16,0 ZZO 18,0 999,0 94 - -
06:29 0,9 0,0 18,0 ZO 18,0 999,0 94 - -
06:34 0,9 0,0 8,0 ZZO 11,0 999,0 94 - -
06:39 0,8 -0,1 11,0 ZZO 18,0 999,0 94 - -
06:44 0,8 -0,1 11,0 ZO 15,0 999,0 94 - -
06:49 0,7 -0,3 11,0 ZZO 15,0 999,0 93 - -
06:54 0,7 -0,3 14,0 ZO 15,0 999,0 93 - -
06:59 0,7 -0,2 13,0 ZO 13,0 999,0 94 - -
07:04 0,7 -0,2 11,0 ZO 11,0 999,0 94 - -
07:09 0,7 -0,2 13,0 ZO 18,0 999,3 94 - -
07:14 0,7 -0,2 13,0 ZO 15,0 999,3 94 - -
07:19 0,7 -0,2 18,0 ZO 18,0 999,3 94 - -
07:24 0,7 -0,2 13,0 ZO 15,0 999,3 94 - -
07:29 0,7 -0,2 11,0 ZO 13,0 999,3 94 - -
07:34 0,6 -0,3 11,0 ZO 16,0 999,3 94 - -
07:39 0,7 -0,2 13,0 ZZO 15,0 999,3 94 - -
07:44 0,7 -0,2 14,0 ZO 16,0 999,3 94 - -
07:49 0,7 -0,2 11,0 ZZO 18,0 999,3 94 - -
07:54 0,7 -0,2 11,0 ZZO 13,0 999,3 94 - -
07:59 0,7 -0,2 13,0 ZZO 19,0 999,3 94 - -
08:04 0,7 -0,2 13,0 ZZO 18,0 999,3 94 - -
08:09 0,7 -0,2 13,0 ZZO 18,0 999,3 94 - -
08:14 0,7 -0,2 10,0 ZZO 15,0 999,3 94 - -
08:19 0,7 -0,2 16,0 ZZO 16,0 999,3 94 - -
08:24 0,7 -0,2 13,0 ZZO 18,0 999,7 94 - -
08:29 0,7 -0,2 18,0 ZO 18,0 999,7 94 - -
08:34 0,6 -0,3 14,0 ZO 18,0 999,7 94 - -
08:39 0,6 -0,3 13,0 ZO 16,0 999,7 94 - -
Dagelijkse Samenvatting Donderdag Dec 9 2021
Tijd Temp. ( °C ) Dew pt. ( °C ) Wind ( km/h ) van Windvlaag ( km/h ) Luchtdruk ( hPa ) Humid.( % ) Rainrate ( cm ) Zonneschijn ( W/m2 )
Hoog2,3 1,0 20,0 ZO ( 940/1368 ) 23,0 999,7 94 - 0
Gemiddeld1,4 0,3 13,2 ZO #69/104 16,4 998,7 93 - NAN #0/104
Laag0,6 -0,3 8,0   11,0 998,0 91 -  
Dagelijkse Tabular details for Donderdag Dec 9 2021
Tijd Temp. ( °C ) Dew pt. ( °C ) Wind ( km/h ) van Windvlaag ( km/h ) Luchtdruk ( hPa ) Humid.( % ) Rainrate ( cm ) Zonneschijn ( W/m2 )
00:04 2,3 1,0 14,0 ZO 19,0 998,0 91 - -
00:09 2,3 1,0 13,0 ZO 13,0 998,0 91 - -
00:14 2,2 0,9 14,0 ZZO 18,0 998,0 91 - -
00:19 2,3 1,0 14,0 ZO 16,0 998,0 91 - -
00:24 2,2 0,9 13,0 ZO 16,0 998,0 91 - -
00:29 2,2 0,9 13,0 ZO 16,0 998,0 91 - -
00:34 2,2 0,9 14,0 ZO 16,0 998,0 91 - -
00:39 2,1 0,9 13,0 ZO 16,0 998,0 92 - -
00:44 2,1 0,9 13,0 ZO 13,0 998,3 92 - -
00:49 2,1 0,9 13,0 ZO 18,0 998,3 92 - -
00:54 2,1 0,9 10,0 ZO 15,0 998,0 92 - -
00:59 2,1 0,9 16,0 ZO 16,0 998,3 92 - -
01:04 2,0 0,8 16,0 ZO 16,0 998,3 92 - -
01:09 2,0 0,8 13,0 ZO 15,0 998,3 92 - -
01:14 1,9 0,7 13,0 ZO 15,0 998,3 92 - -
01:19 2,0 0,8 13,0 ZO 18,0 998,3 92 - -
01:24 2,1 0,9 14,0 ZO 16,0 998,3 92 - -
01:29 2,1 0,9 14,0 ZO 18,0 998,3 92 - -
01:34 2,0 0,8 16,0 ZO 18,0 998,0 92 - -
01:39 1,9 0,7 13,0 ZO 15,0 998,0 92 - -
01:44 1,9 0,7 14,0 ZO 15,0 998,0 92 - -
01:49 1,9 0,7 14,0 ZO 16,0 998,3 92 - -
01:54 1,9 0,7 13,0 ZZO 16,0 998,3 92 - -
01:59 1,9 0,7 10,0 ZZO 16,0 998,3 92 - -
02:04 1,8 0,6 13,0 ZZO 16,0 998,3 92 - -
02:09 1,8 0,6 13,0 ZZO 16,0 998,3 92 - -
02:14 1,8 0,6 13,0 ZO 18,0 998,3 92 - -
02:19 1,8 0,6 20,0 ZZO 19,0 998,3 92 - -
02:24 1,9 0,7 13,0 ZO 19,0 998,3 92 - -
02:29 1,9 0,7 13,0 ZO 23,0 998,3 92 - -
02:34 1,9 0,7 16,0 ZO 16,0 998,7 92 - -
02:39 1,8 0,6 20,0 ZO 23,0 998,7 92 - -
02:44 1,7 0,5 13,0 ZO 18,0 998,7 92 - -
02:49 1,7 0,5 20,0 ZZO 19,0 998,7 92 - -
02:54 1,7 0,5 13,0 ZO 19,0 998,7 92 - -
02:59 1,7 0,5 13,0 ZZO 16,0 998,7 92 - -
03:04 1,6 0,4 13,0 ZO 23,0 998,7 92 - -
03:09 1,6 0,4 13,0 ZZO 18,0 998,7 92 - -
03:14 1,6 0,4 19,0 ZO 19,0 998,7 92 - -
03:19 1,5 0,5 16,0 ZO 16,0 998,7 93 - -
03:24 1,6 0,6 13,0 ZO 16,0 998,7 93 - -
03:29 1,5 0,5 14,0 ZO 18,0 998,7 93 - -
03:34 1,5 0,5 11,0 ZO 18,0 998,7 93 - -
03:39 1,4 0,4 14,0 ZO 18,0 998,7 93 - -
03:44 1,4 0,4 14,0 ZO 18,0 998,7 93 - -
03:49 1,4 0,4 14,0 ZO 18,0 998,7 93 - -
03:54 1,4 0,4 13,0 ZO 15,0 998,3 93 - -
03:59 1,4 0,4 16,0 ZO 19,0 998,3 93 - -
04:04 1,3 0,3 8,0 ZZO 19,0 998,7 93 - -
04:09 1,3 0,3 11,0 ZO 16,0 998,7 93 - -
04:14 1,3 0,3 11,0 ZO 15,0 998,7 93 - -
04:19 1,3 0,3 16,0 ZO 16,0 998,7 93 - -
04:24 1,3 0,3 13,0 ZZO 16,0 998,7 93 - -
04:29 1,3 0,3 14,0 ZZO 16,0 998,7 93 - -
04:34 1,3 0,3 14,0 ZZO 15,0 998,7 93 - -
04:39 1,3 0,3 10,0 ZZO 18,0 998,7 93 - -
04:44 1,3 0,3 14,0 ZO 18,0 998,7 93 - -
04:49 1,3 0,3 18,0 ZO 18,0 998,7 93 - -
04:54 1,3 0,3 13,0 ZZO 18,0 998,7 93 - -
04:59 1,2 0,2 14,0 ZO 15,0 998,7 93 - -
05:04 1,2 0,2 14,0 ZO 16,0 998,7 93 - -
05:09 1,2 0,2 16,0 ZO 16,0 998,7 93 - -
05:14 1,2 0,2 13,0 ZO 18,0 998,7 93 - -
05:19 1,2 0,2 10,0 ZZO 18,0 998,3 93 - -
05:24 1,1 0,1 10,0 ZO 13,0 998,7 93 - -
05:29 1,1 0,1 11,0 ZO 13,0 998,7 93 - -
05:34 1,1 0,1 13,0 ZO 15,0 998,7 93 - -
05:39 1,1 0,1 10,0 ZZO 15,0 998,7 93 - -
05:44 1,0 0,0 11,0 ZO 15,0 998,7 93 - -
05:49 1,1 0,1 8,0 ZO 13,0 998,7 93 - -
05:54 1,0 0,0 10,0 ZZO 11,0 998,7 93 - -
05:59 1,0 0,0 11,0 ZO 13,0 998,7 93 - -
06:04 1,0 0,0 8,0 ZZO 13,0 998,7 93 - -
06:09 0,9 -0,1 11,0 ZZO 15,0 999,0 93 - -
06:14 0,9 -0,1 8,0 ZZO 15,0 999,0 93 - -
06:19 0,9 -0,1 11,0 ZZO 15,0 999,0 94 - -
06:24 0,8 -0,1 16,0 ZZO 18,0 999,0 94 - -
06:29 0,9 0,0 18,0 ZO 18,0 999,0 94 - -
06:34 0,9 0,0 8,0 ZZO 11,0 999,0 94 - -
06:39 0,8 -0,1 11,0 ZZO 18,0 999,0 94 - -
06:44 0,8 -0,1 11,0 ZO 15,0 999,0 94 - -
06:49 0,7 -0,3 11,0 ZZO 15,0 999,0 93 - -
06:54 0,7 -0,3 14,0 ZO 15,0 999,0 93 - -
06:59 0,7 -0,2 13,0 ZO 13,0 999,0 94 - -
07:04 0,7 -0,2 11,0 ZO 11,0 999,0 94 - -
07:09 0,7 -0,2 13,0 ZO 18,0 999,3 94 - -
07:14 0,7 -0,2 13,0 ZO 15,0 999,3 94 - -
07:19 0,7 -0,2 18,0 ZO 18,0 999,3 94 - -
07:24 0,7 -0,2 13,0 ZO 15,0 999,3 94 - -
07:29 0,7 -0,2 11,0 ZO 13,0 999,3 94 - -
07:34 0,6 -0,3 11,0 ZO 16,0 999,3 94 - -
07:39 0,7 -0,2 13,0 ZZO 15,0 999,3 94 - -
07:44 0,7 -0,2 14,0 ZO 16,0 999,3 94 - -
07:49 0,7 -0,2 11,0 ZZO 18,0 999,3 94 - -
07:54 0,7 -0,2 11,0 ZZO 13,0 999,3 94 - -
07:59 0,7 -0,2 13,0 ZZO 19,0 999,3 94 - -
08:04 0,7 -0,2 13,0 ZZO 18,0 999,3 94 - -
08:09 0,7 -0,2 13,0 ZZO 18,0 999,3 94 - -
08:14 0,7 -0,2 10,0 ZZO 15,0 999,3 94 - -
08:19 0,7 -0,2 16,0 ZZO 16,0 999,3 94 - -
08:24 0,7 -0,2 13,0 ZZO 18,0 999,7 94 - -
08:29 0,7 -0,2 18,0 ZO 18,0 999,7 94 - -
08:34 0,6 -0,3 14,0 ZO 18,0 999,7 94 - -
08:39 0,6 -0,3 13,0 ZO 16,0 999,7 94 - -

Download your copy of this data-set  here

Our weather-data as stored at Weather Underground. Script ontwikkeld door Jim McMurry. Rewritten for template use Leuven-Template

Apparatuur in gebruik:

Weerstation
Davis Vantage pro 2

Weerprogramma
Meteobridge

Weercomputer
Meteobridge Nano SD

Webleverancier
Versio

Davis Vantage pro 2

Meteobridge

Meteobridge Nano SD

Versio